period_start,C,m1,H,J0,J1,J2,J3,J4,J5,JA,JB,JC,JD,JJ,JK,JN,#
2015-03-31 00:01:13,0.08,2.97,0.00,24.13,27.34,30.23,4.67,26.82,1001.48,2031.00,2381.65,2553.02,2754.47,349.60,340.83,25.19,0000 0000 0000 0000 000000
2015-03-31 00:06:14,0.08,2.97,0.00,23.78,27.35,30.32,4.73,26.90,1001.48,2031.00,2380.77,2552.58,2753.98,349.90,341.59,25.22,0000 0000 0000 0000 000000
2015-03-31 00:11:15,0.07,2.98,0.00,23.74,27.35,30.01,4.69,26.93,1001.48,2031.01,2380.03,2552.02,2753.34,349.84,341.54,25.25,0000 0000 0000 0000 000000
2015-03-31 00:16:17,0.07,2.98,0.00,24.20,27.34,29.84,4.69,26.96,1001.48,2031.02,2379.47,2551.78,2752.97,349.78,341.07,25.28,0000 0000 0000 0000 000000
2015-03-31 00:21:18,0.07,2.98,0.00,24.23,27.32,29.90,4.69,26.84,1001.48,2031.03,2379.00,2551.06,2752.31,349.74,341.00,25.31,0000 0000 0000 0000 000000
2015-03-31 00:26:19,0.04,2.98,0.00,24.43,27.32,30.00,4.71,26.93,1001.48,2031.02,2378.53,2550.91,2751.99,350.64,341.56,25.34,0000 0000 0000 0000 000000
2015-03-31 00:31:21,0.09,2.98,0.00,24.73,27.32,30.03,4.71,26.89,1001.47,2031.01,2377.96,2550.15,2751.35,350.83,341.40,25.37,0000 0000 0000 0000 000000
2015-03-31 00:36:22,0.13,2.99,0.00,24.99,27.34,30.00,4.69,26.98,1001.46,2031.00,2376.84,2549.52,2750.73,350.59,340.81,25.40,0000 0000 0000 0000 000000
2015-03-31 00:41:24,0.06,2.99,0.00,24.42,27.35,30.17,4.67,27.00,1001.48,2031.00,2375.97,2548.90,2750.00,350.10,341.04,25.43,0000 0000 0000 0000 000000
2015-03-31 00:46:25,0.12,2.99,0.00,23.92,27.37,30.30,4.65,26.98,1001.46,2030.99,2375.14,2548.10,2749.24,349.96,341.40,25.46,0000 0000 0000 0000 000000
2015-03-31 00:51:26,0.08,2.99,0.00,23.75,27.36,30.16,4.69,27.05,1001.42,2030.98,2374.38,2547.78,2748.79,349.99,341.64,25.49,0000 0000 0000 0000 000000
2015-03-31 00:56:27,0.10,3.00,0.00,23.88,27.35,29.86,4.69,27.05,1001.40,2030.99,2373.41,2547.05,2748.03,349.41,341.01,25.51,0000 0000 0000 0000 000000
2015-03-31 01:01:29,0.06,3.00,0.00,24.22,27.33,29.82,4.71,26.94,1001.46,2031.00,2372.92,2546.67,2747.53,350.52,341.61,25.54,0000 0000 0000 0000 000000
2015-03-31 01:06:30,0.08,3.00,0.00,24.22,27.32,29.95,4.69,26.97,1001.48,2031.00,2372.07,2546.04,2747.00,350.09,341.04,25.57,0000 0000 0000 0000 000000
2015-03-31 01:11:31,0.15,3.01,0.00,24.10,27.32,29.98,4.71,27.19,1001.47,2031.00,2371.00,2545.36,2746.12,350.06,341.30,25.60,0000 0000 0000 0000 000000
2015-03-31 01:16:32,0.24,3.01,0.00,24.51,27.32,30.01,4.64,27.07,1001.47,2031.00,2368.96,2544.01,2744.65,350.15,340.80,25.63,0000 0000 0000 0000 000000
2015-03-31 01:21:34,0.18,3.02,0.00,24.85,27.32,29.96,4.72,27.10,1001.41,2031.00,2367.39,2542.80,2743.46,350.16,340.47,25.66,0000 0000 0000 0000 000000
2015-03-31 01:26:35,0.20,3.02,0.00,24.33,27.34,30.16,4.67,26.98,1001.48,2031.00,2365.73,2541.62,2742.15,349.70,340.72,25.69,0000 0000 0000 0000 000000
2015-03-31 01:31:36,0.20,3.03,0.00,23.91,27.35,30.31,4.65,27.01,1001.48,2030.99,2363.89,2540.42,2740.86,349.36,340.73,25.72,0000 0000 0000 0000 000000
2015-03-31 01:36:37,0.13,3.04,0.00,23.77,27.35,30.19,4.69,27.07,1001.47,2030.99,2362.58,2539.52,2740.03,350.23,342.24,25.75,0000 0000 0000 0000 000000
2015-03-31 01:41:38,0.06,3.04,0.00,24.12,27.33,29.87,4.64,26.91,1001.44,2030.99,2361.95,2539.02,2739.45,349.84,341.33,25.78,0000 0000 0000 0000 000000
2015-03-31 01:46:39,0.07,3.04,0.00,24.21,27.32,29.91,4.72,27.04,1001.43,2030.99,2361.12,2538.77,2738.99,350.04,341.13,25.81,0000 0000 0000 0000 000000
2015-03-31 01:51:41,0.13,3.04,0.00,24.29,27.30,30.00,4.63,27.07,1001.44,2030.99,2360.20,2537.96,2738.28,349.35,340.41,25.84,0000 0000 0000 0000 000000
2015-03-31 01:56:42,0.13,3.05,0.00,24.63,27.30,30.04,4.64,27.02,1001.42,2031.00,2359.13,2537.13,2737.53,349.79,340.31,25.87,0000 0000 0000 0000 000000
2015-03-31 02:01:43,0.04,3.05,0.00,24.96,27.31,30.01,4.64,26.95,1001.44,2031.00,2358.73,2536.87,2737.01,350.06,340.33,25.89,0000 0000 0000 0000 000000
2015-03-31 02:06:44,0.12,3.05,0.00,24.52,27.32,30.12,4.63,27.04,1001.46,2031.00,2357.81,2536.09,2736.23,350.33,341.12,25.92,0000 0000 0000 0000 000000
2015-03-31 02:11:46,0.12,3.06,0.00,24.05,27.32,30.28,4.62,26.72,1001.48,2031.00,2356.84,2535.51,2735.68,349.78,341.08,25.95,0000 0000 0000 0000 000000
2015-03-31 02:16:47,0.14,3.06,0.00,23.86,27.32,30.19,4.73,26.88,1001.46,2031.00,2355.64,2534.74,2734.80,350.54,341.92,25.98,0000 0000 0000 0000 000000
2015-03-31 02:21:48,0.13,3.06,0.00,23.91,27.32,29.94,4.67,26.89,1001.28,2031.01,2354.13,2533.87,2733.91,349.89,341.35,26.01,0000 0000 0000 0000 000000
2015-03-31 02:26:49,0.15,3.07,0.00,24.38,27.30,29.81,4.67,27.01,1001.08,2031.00,2352.86,2532.93,2732.88,349.73,340.41,26.04,0000 0000 0000 0000 000000
2015-03-31 02:31:50,0.20,3.07,0.00,24.24,27.30,29.93,4.69,26.93,1001.22,2031.01,2351.40,2531.83,2731.74,349.64,340.64,26.07,0000 0000 0000 0000 000000
2015-03-31 02:36:52,0.24,3.08,0.00,24.32,27.29,29.97,4.65,27.07,1001.18,2031.01,2349.38,2530.40,2730.23,349.72,340.53,26.10,0000 0000 0000 0000 000000
2015-03-31 02:41:53,0.25,3.09,0.00,24.90,27.30,29.94,4.62,26.94,1001.22,2031.00,2347.38,2528.85,2728.60,349.72,340.02,26.13,0000 0000 0000 0000 000000
2015-03-31 02:46:54,0.30,3.10,0.00,24.75,27.30,29.97,4.72,27.00,1001.33,2031.01,2345.01,2527.15,2726.70,350.59,341.02,26.16,0000 0000 0000 0000 000000
2015-03-31 02:51:55,0.22,3.10,0.00,24.20,27.31,30.18,4.70,27.07,1001.39,2031.00,2342.96,2525.66,2725.20,350.07,341.06,26.19,0000 0000 0000 0000 000000
2015-03-31 02:56:57,0.16,3.11,0.00,23.93,27.32,30.25,4.67,26.95,1001.42,2031.00,2341.50,2524.67,2724.13,350.11,341.46,26.22,0000 0000 0000 0000 000000
2015-03-31 03:01:58,0.11,3.11,0.00,23.80,27.30,30.07,4.70,26.92,1001.47,2031.00,2340.39,2523.95,2723.32,350.40,342.00,26.25,0000 0000 0000 0000 000000
2015-03-31 03:06:59,0.21,3.12,0.00,24.16,27.30,29.83,4.67,26.89,1001.40,2031.00,2338.80,2522.83,2722.12,350.03,341.25,26.28,0000 0000 0000 0000 000000
2015-03-31 03:12:00,0.24,3.12,0.00,24.38,27.27,29.79,4.72,26.90,1001.46,2031.01,2336.83,2521.50,2720.68,349.96,340.88,26.30,0000 0000 0000 0000 000000
2015-03-31 03:17:02,0.26,3.13,0.00,24.26,27.27,29.92,4.71,26.97,1001.46,2031.02,2334.64,2519.88,2719.00,350.04,341.06,26.33,0000 0000 0000 0000 000000
2015-03-31 03:22:03,0.24,3.14,0.00,24.67,27.27,29.97,4.65,26.93,1001.48,2031.03,2332.65,2518.52,2717.51,350.02,340.57,26.36,0000 0000 0000 0000 000000
2015-03-31 03:27:04,0.17,3.15,0.00,25.02,27.28,29.87,4.63,27.07,1001.48,2031.03,2331.11,2517.25,2716.22,349.90,340.09,26.39,0000 0000 0000 0000 000000
2015-03-31 03:32:05,0.13,3.15,0.00,24.54,27.30,30.01,4.62,27.06,1001.48,2031.00,2330.32,2516.56,2715.39,349.60,340.44,26.42,0000 0000 0000 0000 000000
2015-03-31 03:37:06,0.11,3.15,0.00,24.11,27.30,30.21,4.66,27.07,1001.48,2031.00,2329.10,2515.86,2714.61,349.92,341.16,26.45,0000 0000 0000 0000 000000
2015-03-31 03:42:07,0.10,3.16,0.00,23.97,27.30,30.18,4.70,27.02,1001.48,2031.00,2328.07,2515.07,2713.95,350.32,341.54,26.48,0000 0000 0000 0000 000000
2015-03-31 03:47:09,0.13,3.16,0.00,23.93,27.30,29.99,4.59,26.86,1001.48,2031.01,2327.11,2514.57,2713.10,349.73,341.54,26.51,0000 0000 0000 0000 000000
2015-03-31 03:52:10,0.08,3.16,0.00,24.46,27.28,29.80,4.65,26.84,1001.48,2031.01,2326.22,2514.01,2712.66,350.17,340.90,26.54,0000 0000 0000 0000 000000
2015-03-31 03:57:12,0.12,3.17,0.00,24.43,27.27,29.92,4.56,27.07,1001.48,2031.00,2325.31,2513.23,2711.97,349.30,340.10,26.57,0000 0000 0000 0000 000000
2015-03-31 04:02:13,0.07,3.17,0.00,24.53,27.27,29.96,4.68,27.07,1001.49,2031.00,2324.70,2512.89,2711.16,349.45,340.38,26.60,0000 0000 0000 0000 000000
2015-03-31 04:07:14,0.12,3.17,0.00,25.05,27.27,29.92,4.70,26.96,1001.51,2031.00,2323.83,2512.08,2710.49,350.00,340.16,26.63,0000 0000 0000 0000 000000
2015-03-31 04:12:16,0.13,3.18,0.00,24.76,27.28,29.97,4.63,27.08,1001.52,2031.00,2322.89,2511.36,2709.75,349.73,340.24,26.66,0000 0000 0000 0000 000000
2015-03-31 04:17:17,0.10,3.18,0.00,24.26,27.30,30.18,4.72,27.17,1001.53,2031.00,2321.82,2510.77,2709.01,350.33,341.17,26.69,0000 0000 0000 0000 000000
2015-03-31 04:22:18,0.13,3.18,0.00,24.04,27.30,30.19,4.68,26.97,1001.51,2031.00,2320.71,2509.98,2708.17,350.49,341.84,26.71,0000 0000 0000 0000 000000
2015-03-31 04:27:19,0.16,3.19,0.00,23.93,27.28,30.09,4.69,27.13,1001.55,2031.00,2319.43,2509.08,2707.19,349.95,341.39,26.74,0000 0000 0000 0000 000000
2015-03-31 04:32:21,0.10,3.19,0.00,24.16,27.27,29.84,4.67,27.02,1001.66,2030.99,2318.63,2508.52,2706.69,349.96,341.24,26.77,0000 0000 0000 0000 000000
2015-03-31 04:37:22,0.06,3.19,0.00,24.42,27.25,29.83,4.68,27.00,1001.57,2031.00,2317.90,2508.02,2706.02,350.20,340.96,26.80,0000 0000 0000 0000 000000
2015-03-31 04:42:23,0.11,3.20,0.00,24.66,27.25,29.91,4.64,27.07,1001.58,2031.04,2317.01,2507.59,2705.55,349.40,340.08,26.83,0000 0000 0000 0000 000000
2015-03-31 04:47:24,0.09,3.20,0.00,25.03,27.25,29.91,4.65,26.91,1001.78,2031.03,2316.08,2506.91,2704.82,349.95,340.24,26.86,0000 0000 0000 0000 000000
2015-03-31 04:52:25,0.15,3.20,0.00,24.66,27.25,29.97,4.59,26.98,1001.85,2031.03,2315.00,2506.05,2703.93,349.68,340.41,26.89,0000 0000 0000 0000 000000
2015-03-31 04:57:27,0.17,3.21,0.00,24.22,27.25,30.10,4.69,26.99,1001.66,2031.01,2313.49,2505.12,2702.94,350.12,341.48,26.92,0000 0000 0000 0000 000000
2015-03-31 05:02:28,0.14,3.21,0.00,24.03,27.24,30.12,4.68,27.06,1001.90,2031.02,2312.36,2504.31,2702.05,350.04,341.53,26.95,0000 0000 0000 0000 000000
2015-03-31 05:07:30,0.13,3.22,0.00,23.91,27.22,30.01,4.62,26.91,1001.96,2031.04,2311.13,2503.68,2701.21,349.35,340.89,26.98,0000 0000 0000 0000 000000
2015-03-31 05:12:31,0.10,3.22,0.00,24.10,27.21,29.84,4.66,27.13,1001.97,2031.05,2310.15,2502.99,2700.63,349.26,340.85,27.01,0000 0000 0000 0000 000000
2015-03-31 05:17:32,0.14,3.23,0.00,24.40,27.19,29.75,4.69,26.92,1001.97,2031.12,2309.23,2502.22,2699.98,349.81,340.84,27.04,0000 0000 0000 0000 000000
2015-03-31 05:22:34,0.12,3.23,0.00,24.31,27.17,29.82,4.61,27.04,1001.97,2031.30,2308.47,2501.92,2699.21,349.52,340.74,27.07,0000 0000 0000 0000 000000
2015-03-31 05:27:35,0.12,3.23,0.00,24.74,27.17,29.83,4.68,27.01,1001.97,2031.29,2307.49,2501.10,2698.60,349.77,340.52,27.10,0000 0000 0000 0000 000000
2015-03-31 05:32:36,0.09,3.23,0.00,25.00,27.18,29.72,4.67,26.92,1001.97,2031.21,2306.68,2500.46,2697.95,350.64,341.00,27.13,0000 0000 0000 0000 000000
2015-03-31 05:37:37,0.08,3.24,0.00,24.60,27.20,29.89,4.65,27.07,1001.97,2031.13,2305.70,2499.88,2697.11,349.68,340.36,27.15,0000 0000 0000 0000 000000
2015-03-31 05:42:38,0.09,3.24,0.00,24.17,27.20,30.13,4.62,27.02,1001.97,2031.07,2304.87,2499.09,2696.57,349.72,341.02,27.18,0000 0000 0000 0000 000000
2015-03-31 05:47:39,0.06,3.24,0.00,23.99,27.20,30.15,4.72,27.00,1001.97,2031.06,2304.02,2498.82,2696.00,350.21,341.74,27.21,0000 0000 0000 0000 000000
2015-03-31 05:52:41,0.15,3.25,0.00,23.91,27.20,30.05,4.78,27.02,1002.01,2031.13,2303.19,2498.06,2695.38,350.42,342.14,27.24,0000 0000 0000 0000 000000
2015-03-31 05:57:42,0.08,3.25,0.00,23.69,27.17,29.85,4.74,26.95,1002.22,2031.19,2302.53,2497.81,2694.95,349.82,341.67,27.27,0000 0000 0000 0000 000000
2015-03-31 06:02:44,0.13,3.25,0.00,23.57,27.15,29.82,4.67,26.98,1002.06,2031.39,2301.86,2497.07,2694.20,349.73,341.78,27.30,0000 0000 0000 0000 000000
2015-03-31 06:07:45,0.19,3.26,0.00,23.77,27.14,29.78,4.71,27.09,1002.22,2031.71,2300.78,2496.57,2693.62,350.38,342.25,27.33,0000 0000 0000 0000 000000
2015-03-31 06:12:47,0.19,3.26,0.00,24.04,27.12,29.81,4.71,27.13,1002.39,2031.85,2299.38,2495.58,2692.49,349.78,341.41,27.36,0000 0000 0000 0000 000000
2015-03-31 06:17:48,0.19,3.27,0.00,24.31,27.12,29.81,4.70,27.09,1002.36,2031.66,2297.50,2494.32,2690.99,350.24,341.65,27.39,0000 0000 0000 0000 000000
2015-03-31 06:22:49,0.23,3.28,0.00,24.28,27.13,29.77,4.69,27.05,1002.40,2031.67,2295.59,2492.93,2689.57,350.67,342.00,27.42,0000 0000 0000 0000 000000
2015-03-31 06:27:50,0.16,3.28,0.00,24.33,27.15,29.75,4.71,27.15,1002.38,2031.39,2293.81,2491.69,2688.22,349.74,341.03,27.45,0000 0000 0000 0000 000000
2015-03-31 06:32:52,0.21,3.29,0.00,24.35,27.17,29.81,4.72,26.99,1002.46,2031.13,2291.89,2490.29,2686.67,350.53,341.87,27.48,0000 0000 0000 0000 000000
2015-03-31 06:37:53,0.25,3.29,0.00,24.45,27.20,29.86,4.67,26.94,1002.46,2031.04,2289.88,2488.65,2684.97,350.32,341.27,27.51,0000 0000 0000 0000 000000
2015-03-31 06:42:54,0.24,3.30,0.00,24.70,27.23,29.94,4.72,27.00,1002.47,2031.00,2287.83,2487.04,2683.37,350.39,341.35,27.53,0000 0000 0000 0000 000000
2015-03-31 06:47:55,0.21,3.31,0.00,25.10,27.28,30.03,4.66,27.05,1002.48,2031.00,2286.11,2485.75,2681.89,349.67,339.90,27.56,0000 0000 0000 0000 000000
2015-03-31 06:52:57,0.18,3.31,0.00,24.79,27.33,30.22,4.65,26.90,1002.60,2030.98,2284.72,2484.65,2680.71,349.95,340.86,27.59,0000 0000 0000 0000 000000
2015-03-31 06:57:58,0.21,3.32,0.00,24.25,27.37,30.51,4.70,27.05,1002.50,2030.91,2283.03,2483.40,2679.42,350.68,342.10,27.62,0000 0000 0000 0000 000000
2015-03-31 07:02:59,0.23,3.33,0.00,23.98,27.40,30.57,4.69,26.92,1002.61,2030.91,2281.07,2481.89,2677.82,349.92,341.72,27.65,0000 0000 0000 0000 000000
2015-03-31 07:08:01,0.19,3.33,0.00,23.94,27.42,30.44,4.67,26.89,1002.81,2030.83,2279.39,2480.67,2676.44,349.61,341.42,27.68,0000 0000 0000 0000 000000
2015-03-31 07:13:02,0.18,3.34,0.00,24.36,27.42,30.21,4.65,26.93,1002.84,2030.75,2277.86,2479.66,2675.26,349.82,341.09,27.71,0000 0000 0000 0000 000000
2015-03-31 07:18:03,0.40,3.35,0.00,24.22,27.43,30.18,4.68,27.02,1002.92,2030.75,2274.63,2477.88,2673.44,350.15,341.67,27.74,0000 0000 0000 0000 000000
2015-03-31 07:23:05,0.29,3.36,0.00,24.21,27.44,30.26,4.70,27.02,1002.94,2030.66,2271.58,2476.08,2671.52,349.60,341.15,27.77,0000 0000 0000 0000 000000
2015-03-31 07:28:06,0.24,3.37,0.00,24.44,27.45,30.27,4.67,27.24,1002.94,2030.29,2268.96,2474.21,2669.47,349.66,341.08,27.80,0000 0000 0000 0000 000000
2015-03-31 07:33:07,0.40,3.37,0.00,24.67,27.45,30.24,4.66,27.01,1002.96,2030.18,2266.11,2472.11,2667.23,350.21,341.32,27.83,0000 0000 0000 0000 000000
2015-03-31 07:38:09,0.35,3.39,0.00,25.04,27.47,30.12,4.65,26.93,1003.00,2030.09,2263.03,2469.80,2664.81,349.49,340.23,27.86,0000 0000 0000 0000 000000
2015-03-31 07:43:10,0.31,3.40,0.00,24.66,27.50,30.34,4.64,26.98,1003.08,2030.02,2260.51,2467.98,2662.87,350.00,341.13,27.89,0000 0000 0000 0000 000000
2015-03-31 07:48:11,0.32,3.41,0.00,24.16,27.52,30.55,4.69,27.07,1003.38,2030.00,2257.79,2466.04,2660.79,349.75,341.56,27.92,0000 0000 0000 0000 000000
2015-03-31 07:53:13,0.15,3.41,0.00,23.94,27.52,30.53,4.72,27.08,1003.41,2030.00,2256.15,2464.96,2659.64,350.60,342.64,27.95,0000 0000 0000 0000 000000
2015-03-31 07:58:14,0.14,3.42,0.00,24.03,27.52,30.18,4.64,26.82,1003.43,2030.00,2255.02,2464.11,2658.81,349.93,341.95,27.97,0000 0000 0000 0000 000000
2015-03-31 08:03:15,0.19,3.42,0.00,24.36,27.51,30.03,4.67,26.97,1003.43,2030.01,2253.67,2463.24,2657.72,350.00,341.61,28.00,0000 0000 0000 0000 000000
2015-03-31 08:08:17,0.16,3.43,0.00,24.15,27.50,30.11,4.73,27.16,1003.43,2030.00,2252.43,2462.15,2656.65,350.22,341.93,28.03,0000 0000 0000 0000 000000
2015-03-31 08:13:18,0.15,3.43,0.00,24.29,27.50,30.20,4.68,27.10,1003.43,2030.00,2251.35,2461.31,2655.69,349.93,341.87,28.06,0000 0000 0000 0000 000000
2015-03-31 08:18:19,0.14,3.44,0.00,24.46,27.50,30.21,4.74,27.13,1003.44,2030.00,2250.25,2460.41,2654.77,350.47,341.95,28.09,0000 0000 0000 0000 000000
2015-03-31 08:23:21,0.08,3.44,0.00,24.68,27.50,30.23,4.72,27.14,1003.45,2030.00,2249.43,2459.89,2654.01,350.03,341.21,28.12,0000 0000 0000 0000 000000
2015-03-31 08:28:22,0.14,3.44,0.00,24.96,27.51,30.28,4.65,26.99,1003.46,2030.00,2248.44,2459.07,2653.19,349.87,340.56,28.15,0000 0000 0000 0000 000000
2015-03-31 08:33:23,0.14,3.45,0.00,24.44,27.52,30.44,4.73,27.07,1003.70,2030.00,2247.49,2458.36,2652.46,350.55,342.00,28.18,0000 0000 0000 0000 000000
2015-03-31 08:38:25,0.10,3.45,0.00,23.99,27.52,30.53,4.68,27.05,1003.86,2030.00,2246.54,2457.77,2651.80,350.02,342.20,28.21,0000 0000 0000 0000 000000
2015-03-31 08:43:26,0.11,3.45,0.00,23.86,27.52,30.38,4.67,26.96,1003.91,2029.99,2245.48,2457.03,2651.02,349.99,342.34,28.24,0000 0000 0000 0000 000000
2015-03-31 08:48:27,0.14,3.46,0.00,24.17,27.52,30.06,4.71,26.95,1003.91,2029.99,2244.56,2456.32,2650.17,350.08,341.80,28.27,0000 0000 0000 0000 000000
2015-03-31 08:53:28,0.09,3.46,0.00,24.21,27.50,30.00,4.70,27.03,1003.92,2029.99,2243.68,2455.83,2649.61,350.06,342.00,28.30,0000 0000 0000 0000 000000
2015-03-31 08:58:29,0.11,3.46,0.00,24.20,27.49,30.08,4.63,26.95,1003.92,2030.00,2242.72,2455.04,2648.83,350.07,342.03,28.33,0000 0000 0000 0000 000000
2015-03-31 09:03:30,0.12,3.47,0.00,24.33,27.47,30.12,4.70,27.17,1003.92,2030.00,2241.86,2454.26,2648.04,349.20,341.03,28.36,0000 0000 0000 0000 000000
2015-03-31 09:08:32,0.11,3.47,0.00,24.38,27.47,30.17,4.65,27.02,1003.94,2030.00,2241.01,2453.73,2647.30,349.90,341.52,28.38,0000 0000 0000 0000 000000
2015-03-31 09:13:33,0.12,3.47,0.00,24.65,27.48,30.20,4.68,26.94,1004.05,2030.00,2240.05,2452.91,2646.45,349.62,340.99,28.41,0000 0000 0000 0000 000000
2015-03-31 09:18:35,0.13,3.48,0.00,25.01,27.50,30.25,4.61,26.97,1004.29,2030.00,2239.11,2452.06,2645.65,349.94,340.95,28.44,0000 0000 0000 0000 000000
2015-03-31 09:23:36,0.13,3.48,0.00,24.54,27.51,30.39,4.72,26.98,1004.40,2030.00,2238.31,2451.37,2644.88,350.50,342.05,28.47,0000 0000 0000 0000 000000
2015-03-31 09:28:37,0.16,3.49,0.00,24.03,27.52,30.54,4.76,27.01,1004.41,2029.99,2237.15,2450.44,2643.79,350.18,342.43,28.50,0000 0000 0000 0000 000000
2015-03-31 09:33:39,0.09,3.49,0.00,23.86,27.52,30.48,4.71,27.09,1004.41,2029.99,2236.10,2449.84,2643.01,350.19,342.73,28.53,0000 0000 0000 0000 000000
2015-03-31 09:38:40,0.13,3.49,0.00,24.07,27.52,30.25,4.74,27.03,1004.37,2029.99,2235.40,2449.09,2642.22,350.11,342.49,28.56,0000 0000 0000 0000 000000
2015-03-31 09:43:42,0.03,3.50,0.00,24.25,27.52,30.07,4.63,26.93,1004.38,2029.99,2234.89,2448.88,2641.96,349.75,341.66,28.59,0000 0000 0000 0000 000000
2015-03-31 09:48:43,0.13,3.50,0.00,24.18,27.50,30.10,4.70,27.02,1004.40,2029.99,2234.08,2448.13,2641.24,349.88,342.05,28.62,0000 0000 0000 0000 000000
2015-03-31 09:53:44,0.11,3.50,0.00,24.29,27.50,30.17,4.77,27.23,1004.41,2029.99,2233.35,2447.70,2640.69,350.51,342.53,28.65,0000 0000 0000 0000 000000
2015-03-31 09:58:46,0.09,3.51,0.00,24.33,27.50,30.18,4.66,27.30,1004.42,2029.99,2232.52,2446.96,2639.94,349.87,341.91,28.68,0000 0000 0000 0000 000000
2015-03-31 10:03:47,0.14,3.51,0.00,24.49,27.50,30.23,4.77,27.19,1004.42,2029.99,2231.57,2446.14,2639.07,350.80,342.30,28.71,0000 0000 0000 0000 000000
2015-03-31 10:08:48,0.14,3.51,0.00,24.89,27.51,30.26,4.68,26.98,1004.46,2029.99,2230.65,2445.51,2638.27,349.97,341.46,28.74,0000 0000 0000 0000 000000
2015-03-31 10:13:49,0.15,3.52,0.00,24.72,27.53,30.38,4.70,27.07,1004.82,2029.99,2229.58,2444.63,2637.40,350.37,342.03,28.77,0000 0000 0000 0000 000000
2015-03-31 10:18:51,0.15,3.52,0.00,24.14,27.55,30.52,4.68,26.92,1004.89,2029.98,2228.34,2443.70,2636.25,349.74,342.10,28.79,0000 0000 0000 0000 000000
2015-03-31 10:23:52,0.11,3.53,0.00,23.87,27.55,30.59,4.72,27.16,1004.90,2029.97,2227.25,2442.99,2635.42,350.42,343.02,28.82,0000 0000 0000 0000 000000
2015-03-31 10:28:53,0.11,3.53,0.00,23.95,27.55,30.37,4.71,26.97,1004.90,2029.96,2226.43,2442.30,2634.96,349.13,341.83,28.85,0000 0000 0000 0000 000000
2015-03-31 10:33:55,0.05,3.53,0.00,24.27,27.55,30.12,4.65,26.95,1004.90,2029.97,2225.91,2442.00,2634.27,349.77,341.98,28.88,0000 0000 0000 0000 000000
2015-03-31 10:38:56,0.12,3.53,0.00,24.09,27.53,30.12,4.57,27.04,1004.90,2029.96,2225.09,2441.26,2633.74,349.10,341.45,28.91,0000 0000 0000 0000 000000
2015-03-31 10:43:57,0.13,3.54,0.00,24.21,27.52,30.10,4.71,27.05,1004.91,2029.98,2224.22,2440.55,2632.89,350.04,342.39,28.94,0000 0000 0000 0000 000000
2015-03-31 10:48:59,0.10,3.54,0.00,24.21,27.52,30.22,4.70,27.08,1004.92,2029.97,2223.26,2439.93,2632.05,350.06,342.35,28.97,0000 0000 0000 0000 000000
2015-03-31 10:54:00,0.13,3.55,0.00,24.42,27.52,30.24,4.71,27.01,1004.94,2029.98,2222.54,2439.13,2631.38,350.57,342.71,29.00,0000 0000 0000 0000 000000
2015-03-31 10:59:01,0.05,3.55,0.00,24.62,27.53,30.31,4.70,27.07,1005.02,2029.96,2221.91,2438.75,2630.87,350.01,341.77,29.03,0000 0000 0000 0000 000000
2015-03-31 11:04:03,0.11,3.55,0.00,24.81,27.55,30.38,4.65,26.94,1005.31,2029.93,2221.10,2438.03,2630.07,349.56,341.31,29.06,0000 0000 0000 0000 000000
2015-03-31 11:09:04,0.12,3.55,0.00,24.30,27.57,30.48,4.69,26.97,1005.35,2029.87,2220.38,2437.55,2629.51,349.74,342.10,29.09,0000 0000 0000 0000 000000
2015-03-31 11:14:06,0.03,3.56,0.00,23.86,27.57,30.49,4.78,27.13,1005.38,2029.78,2219.66,2437.00,2629.00,350.23,343.07,29.12,0000 0000 0000 0000 000000
2015-03-31 11:19:07,0.11,3.56,0.00,23.72,27.57,30.32,4.74,26.93,1005.35,2029.82,2219.00,2436.65,2628.39,350.15,343.38,29.15,0000 0000 0000 0000 000000
2015-03-31 11:24:08,0.09,3.56,0.00,24.13,27.57,30.00,4.70,26.97,1005.35,2029.95,2218.35,2436.07,2628.01,350.15,342.42,29.18,0000 0000 0000 0000 000000
2015-03-31 11:29:09,0.01,3.56,0.00,24.12,27.55,29.97,4.61,27.09,1005.38,2029.96,2218.00,2436.00,2627.87,349.63,342.18,29.20,0000 0000 0000 0000 000000
2015-03-31 11:34:11,0.14,3.57,0.00,23.93,27.54,29.97,4.70,27.08,1005.39,2029.97,2217.31,2435.31,2627.08,349.95,342.72,29.23,0000 0000 0000 0000 000000
2015-03-31 11:39:12,0.04,3.57,0.00,24.14,27.52,30.05,4.72,27.16,1005.39,2029.95,2216.76,2435.00,2626.64,350.22,342.67,29.26,0000 0000 0000 0000 000000
2015-03-31 11:44:14,0.10,3.57,0.00,24.37,27.52,30.18,4.75,27.14,1005.39,2029.96,2216.04,2434.47,2626.02,350.07,342.33,29.29,0000 0000 0000 0000 000000
2015-03-31 11:49:15,0.08,3.57,0.00,24.41,27.52,30.24,4.73,27.06,1005.39,2029.94,2215.36,2433.99,2625.53,350.03,342.28,29.32,0000 0000 0000 0000 000000
2015-03-31 11:54:16,0.08,3.58,0.00,24.54,27.54,30.31,4.69,27.02,1005.50,2029.76,2214.46,2433.31,2624.94,349.62,341.76,29.35,0000 0000 0000 0000 000000
2015-03-31 11:59:17,0.05,3.58,0.00,24.85,27.55,30.34,4.67,27.05,1005.53,2029.64,2213.97,2432.97,2624.13,349.39,341.21,29.38,0000 0000 0000 0000 000000
2015-03-31 12:04:19,0.05,3.58,0.00,24.34,27.57,30.48,4.68,27.09,1005.53,2029.46,2213.20,2432.28,2623.92,350.22,342.51,29.41,0000 0000 0000 0000 000000
2015-03-31 12:09:20,0.03,3.58,0.00,23.86,27.58,30.57,4.66,27.00,1005.73,2029.25,2212.62,2432.00,2623.19,349.85,342.72,29.44,0000 0000 0000 0000 000000
2015-03-31 12:14:21,0.08,3.58,0.00,23.71,27.58,30.34,4.69,26.96,1005.68,2029.17,2212.01,2431.51,2623.00,350.29,343.41,29.47,0000 0000 0000 0000 000000
2015-03-31 12:19:22,0.15,3.59,0.00,24.12,27.57,30.06,4.72,26.93,1005.67,2029.56,2211.43,2431.05,2622.76,349.99,342.80,29.50,0000 0000 0000 0000 000000
2015-03-31 12:24:24,0.04,3.59,0.00,24.06,27.56,30.02,4.74,27.01,1005.73,2029.68,2211.01,2430.99,2622.06,349.59,342.42,29.53,0000 0000 0000 0000 000000
2015-03-31 12:29:25,0.10,3.59,0.00,23.90,27.55,30.01,4.70,27.13,1005.76,2029.75,2210.47,2430.62,2621.97,349.89,342.76,29.56,0000 0000 0000 0000 000000
2015-03-31 12:34:26,0.09,3.59,0.00,24.08,27.53,30.15,4.68,27.01,1005.86,2029.84,2209.79,2430.02,2621.23,350.12,342.89,29.59,0000 0000 0000 0000 000000
2015-03-31 12:39:27,0.05,3.60,0.00,24.28,27.52,30.22,4.75,27.21,1005.87,2029.69,2209.03,2429.60,2620.83,350.35,342.45,29.61,0000 0000 0000 0000 000000
2015-03-31 12:44:28,0.11,3.60,0.00,24.30,27.52,30.26,4.70,27.13,1005.88,2029.77,2208.27,2429.01,2620.06,350.06,342.50,29.64,0000 0000 0000 0000 000000
2015-03-31 12:49:29,0.12,3.60,0.00,24.32,27.53,30.32,4.70,27.12,1005.87,2029.79,2207.66,2428.58,2619.70,349.74,342.23,29.67,0000 0000 0000 0000 000000
2015-03-31 12:54:31,-0.02,3.60,0.00,24.65,27.55,30.36,4.66,27.07,1005.92,2029.34,2206.76,2427.97,2618.91,349.93,342.14,29.70,0000 0000 0000 0000 000000
2015-03-31 12:59:32,0.18,3.61,0.00,24.64,27.57,30.44,4.68,27.07,1006.23,2029.23,2205.63,2427.12,2618.01,349.91,342.20,29.73,0000 0000 0000 0000 000000